Date String (YYYY-MM-DD hh:mm:ss) UTC,Instrument flags,absolute air pressure of the measurement (hPa),sample flow rate (lpm),inlet stack bypass flow (lpm),air temperature of the measurement (°C),ambient temperature measured by the external sensor (°C),aerosol sample conditioner tube jacket temperature (°C),OPC LED temperature (°C),internal box temperature (°C),relative humidity of the measurement (%),span deviation,mass concentration of particles derived from Lorenz-Mie calculation of OPC scattering (μg/m³),mass concentration of particles derived from Lorenz-Mie calculation of OPC scattering (μg/m³),mass concentration of particles derived from Lorenz-Mie calculation of OPC scattering (μg/m³)
DateTimeUTC,F1_M11,P_M11,Q1_M11,Q2_M11,T1_M11,T2_M11,T3_M11,T4_M11,T5_M11,U1_M11,ZSPAN_M11,X2_M11,X0_M11,X1_M11
2023-12-22 12:00:00,SystemResetWarning,0832.1,5.00,000.00,022.6,021.5,000.0,031.0,023.9,13.8,0000.0,0002.45,0005.30,0002.09
2023-12-22 12:01:00,SystemResetWarning,0832.1,5.00,000.00,022.6,021.4,000.0,031.0,024.0,13.8,0000.0,0002.49,0006.83,0002.08
2023-12-22 12:02:00,SystemResetWarning,0832.1,5.00,000.00,022.6,021.4,000.0,030.9,023.9,13.8,0000.0,0002.45,0006.33,0002.03
2023-12-22 12:03:00,SystemResetWarning,0832.1,5.00,000.00,022.6,021.5,000.0,030.9,024.0,13.8,0000.0,0002.45,0005.95,0002.04
2023-12-22 12:04:00,SystemResetWarning,0832.1,5.00,000.00,022.6,021.5,000.0,030.9,023.9,13.8,0000.0,0002.45,0005.41,0002.06
2023-12-22 12:05:00,SystemResetWarning,0832.1,5.01,000.00,022.5,021.5,000.0,030.9,023.9,13.8,0000.0,0002.43,0005.02,0002.07
2023-12-22 12:06:00,SystemResetWarning,0832.1,5.01,000.00,022.5,021.6,000.0,030.9,023.9,13.8,0000.0,0002.41,0005.37,0002.06
2023-12-22 12:07:00,SystemResetWarning,0832.0,5.01,000.00,022.5,021.6,000.0,030.9,023.9,13.8,0000.0,0002.40,0005.41,0002.03
2023-12-22 12:08:00,SystemResetWarning,0832.1,5.00,000.00,022.5,021.6,000.0,030.9,023.9,13.9,0000.0,0002.38,0005.38,0002.00
2023-12-22 12:09:00,SystemResetWarning,0832.0,5.00,000.00,022.5,021.6,000.0,030.9,023.9,13.9,0000.0,0002.38,0005.37,0001.97
2023-12-22 12:10:00,SystemResetWarning,0832.0,4.99,000.00,022.5,021.6,000.0,030.9,023.9,13.9,0000.0,0002.37,0005.30,0001.95
2023-12-22 12:11:00,SystemResetWarning,0832.0,5.00,000.00,022.5,021.7,000.0,030.9,023.9,13.9,0000.0,0002.35,0005.25,0001.93
2023-12-22 12:12:00,SystemResetWarning,0832.1,5.00,000.00,022.5,021.7,000.0,030.9,023.9,13.9,0000.0,0002.31,0003.96,0001.93
2023-12-22 12:13:00,SystemResetWarning,0832.0,5.00,000.00,022.5,021.7,000.0,030.9,023.9,13.8,0000.0,0002.29,0003.72,0001.93
2023-12-22 12:14:00,SystemResetWarning,0832.0,5.01,000.00,022.5,021.6,000.0,030.9,023.9,13.8,0000.0,0002.22,0003.62,0001.88
2023-12-22 12:15:00,SystemResetWarning,0832.1,5.00,000.00,022.5,021.6,000.0,030.9,023.9,13.7,0000.0,0002.16,0003.55,0001.82
2023-12-22 12:16:00,SystemResetWarning,0832.0,5.00,000.00,022.5,021.6,000.0,030.9,023.9,13.7,0000.0,0002.13,0003.47,0001.81
2023-12-22 12:17:00,SystemResetWarning,0832.0,5.00,000.00,022.5,021.6,000.0,030.9,023.9,13.7,0000.0,0002.12,0003.04,0001.80
2023-12-22 12:18:00,SystemResetWarning,0832.0,4.99,000.00,022.5,021.6,000.0,030.9,023.9,13.6,0000.0,0002.17,0003.04,0001.82
2023-12-22 12:19:00,SystemResetWarning,0832.0,4.99,000.00,022.5,021.5,000.0,030.9,023.9,13.6,0000.0,0002.23,0003.28,0001.86
2023-12-22 12:20:00,SystemResetWarning,0832.0,4.99,000.00,022.5,021.5,000.0,030.9,023.9,13.6,0000.0,0002.26,0003.38,0001.91
2023-12-22 12:21:00,SystemResetWarning,0832.0,5.01,000.00,022.5,021.5,000.0,030.9,023.9,13.6,0000.0,0002.28,0003.39,0001.95
2023-12-22 12:22:00,SystemResetWarning,0832.0,5.00,000.00,022.5,021.5,000.0,030.9,023.9,13.7,0000.0,0002.31,0003.44,0001.99
2023-12-22 12:23:00,SystemResetWarning,0832.0,5.00,000.00,022.5,021.5,000.0,030.9,023.9,13.6,0000.0,0002.37,0003.53,0002.05
2023-12-22 12:24:00,SystemResetWarning,0832.0,5.01,000.00,022.5,021.5,000.0,030.9,023.8,13.7,0000.0,0002.42,0003.47,0002.09
2023-12-22 12:25:00,SystemResetWarning,0832.0,5.00,000.00,022.5,021.5,000.0,030.8,023.8,13.7,0000.0,0002.48,0003.56,0002.13
2023-12-22 12:26:00,SystemResetWarning,0832.0,4.99,000.00,022.5,021.5,000.0,030.8,023.8,13.8,0000.0,0002.53,0003.67,0002.17
2023-12-22 12:27:00,SystemResetWarning,0832.0,5.00,000.00,022.5,021.6,000.0,030.8,023.9,13.8,0000.0,0002.54,0003.70,0002.19
2023-12-22 12:28:00,SystemResetWarning,0832.0,5.00,000.00,022.5,021.6,000.0,030.8,023.9,13.8,0000.0,0002.52,0003.66,0002.19
2023-12-22 12:29:00,SystemResetWarning,0832.0,5.01,000.00,022.5,021.6,000.0,030.8,023.9,13.7,0000.0,0002.52,0004.18,0002.20
2023-12-22 12:30:00,SystemResetWarning,0832.0,5.00,000.00,022.5,021.6,000.0,030.8,023.9,13.7,0000.0,0002.49,0004.36,0002.20
2023-12-22 12:31:00,SystemResetWarning,0832.0,5.00,000.00,022.5,021.6,000.0,030.8,023.9,13.8,0000.0,0002.46,0004.22,0002.19
2023-12-22 12:32:00,SystemResetWarning,0832.0,5.00,000.00,022.5,021.5,000.0,030.8,023.9,13.7,0000.0,0002.42,0004.16,0002.14
2023-12-22 12:33:00,SystemResetWarning,0832.0,5.00,000.00,022.5,021.5,000.0,030.8,023.8,13.6,0000.0,0002.36,0004.06,0002.09
2023-12-22 12:34:00,SystemResetWarning,0832.0,4.99,000.00,022.5,021.5,000.0,030.8,023.8,13.6,0000.0,0002.28,0003.93,0002.02
2023-12-22 12:35:00,SystemResetWarning,0832.0,5.01,000.00,022.5,021.5,000.0,030.8,023.9,13.6,0000.0,0002.17,0004.36,0001.94
2023-12-22 12:36:00,SystemResetWarning,0832.0,5.00,000.00,022.5,021.5,000.0,030.8,023.8,13.6,0000.0,0002.07,0004.95,0001.88
2023-12-22 12:37:00,SystemResetWarning,0832.0,5.01,000.00,022.4,021.5,000.0,030.8,023.8,13.6,0000.0,0001.98,0004.80,0001.80
2023-12-22 12:38:00,SystemResetWarning,0832.0,5.01,000.00,022.4,021.4,000.0,030.8,023.8,13.6,0000.0,0001.91,0004.71,0001.73
2023-12-22 12:39:00,SystemResetWarning,0832.0,4.99,000.00,022.4,021.4,000.0,030.8,023.8,13.6,0000.0,0001.82,0004.63,0001.63
2023-12-22 12:40:00,SystemResetWarning,0832.0,4.99,000.00,022.4,021.4,000.0,030.8,023.7,13.6,0000.0,0001.68,0003.95,0001.51
2023-12-22 12:41:00,SystemResetWarning,0832.0,5.01,000.00,022.4,021.4,000.0,030.8,023.7,13.6,0000.0,0001.56,0003.43,0001.40
2023-12-22 12:42:00,SystemResetWarning,0832.0,5.01,000.00,022.4,021.3,000.0,030.8,023.7,13.6,0000.0,0001.45,0003.27,0001.30
2023-12-22 12:43:00,SystemResetWarning,0831.9,5.01,000.00,022.4,021.3,000.0,030.7,023.7,13.7,0000.0,0001.35,0003.13,0001.21
2023-12-22 12:44:00,SystemResetWarning,0832.0,5.00,000.00,022.4,021.3,000.0,030.7,023.7,13.7,0000.0,0001.28,0003.05,0001.14
2023-12-22 12:45:00,SystemResetWarning,0832.0,5.00,000.00,022.3,021.3,000.0,030.7,023.7,13.7,0000.0,0001.20,0002.95,0001.07
2023-12-22 12:46:00,SystemResetWarning,0832.0,5.00,000.00,022.3,021.3,000.0,030.7,023.7,13.7,0000.0,0001.14,0002.63,0001.02
2023-12-22 12:47:00,SystemResetWarning,0832.0,5.00,000.00,022.3,021.2,000.0,030.7,023.6,13.7,0000.0,0001.10,0001.43,0000.96
2023-12-22 12:48:00,SystemResetWarning,0832.0,5.00,000.00,022.3,021.2,000.0,030.7,023.6,13.8,0000.0,0001.07,0001.43,0000.92
2023-12-22 12:49:00,SystemResetWarning,0832.0,5.00,000.00,022.3,021.2,000.0,030.7,023.6,13.8,0000.0,0001.03,0001.37,0000.89
2023-12-22 12:50:00,SystemResetWarning,0832.0,5.00,000.00,022.3,021.2,000.0,030.7,023.6,13.8,0000.0,0001.01,0001.33,0000.88
2023-12-22 12:51:00,SystemResetWarning,0832.0,5.00,000.00,022.3,021.2,000.0,030.7,023.6,13.8,0000.0,0001.01,0001.33,0000.88
2023-12-22 12:52:00,SystemResetWarning,0832.0,5.00,000.00,022.3,021.2,000.0,030.7,023.6,13.9,0000.0,0001.00,0001.29,0000.88
2023-12-22 12:53:00,SystemResetWarning,0832.0,5.00,000.00,022.2,021.1,000.0,030.7,023.6,14.0,0000.0,0001.01,0001.32,0000.88
2023-12-22 12:54:00,SystemResetWarning,0832.0,5.00,000.00,022.2,021.1,000.0,030.7,023.6,14.0,0000.0,0001.03,0001.36,0000.88
2023-12-22 12:55:00,SystemResetWarning,0832.0,5.00,000.00,022.2,021.1,000.0,030.6,023.6,14.1,0000.0,0001.05,0001.39,0000.88
2023-12-22 12:56:00,SystemResetWarning,0832.0,5.00,000.00,022.2,021.1,000.0,030.6,023.5,14.1,0000.0,0001.06,0001.40,0000.88
2023-12-22 12:57:00,SystemResetWarning,0831.9,5.00,000.00,022.2,021.1,000.0,030.6,023.5,14.0,0000.0,0001.07,0001.43,0000.89
2023-12-22 12:58:00,SystemResetWarning,0832.0,5.01,000.00,022.2,021.1,000.0,030.6,023.5,14.0,0000.0,0001.06,0001.42,0000.89
2023-12-22 12:59:00,SystemResetWarning,0832.0,5.01,000.00,022.2,021.1,000.0,030.6,023.5,14.0,0000.0,0001.05,0001.39,0000.89
